• In Hungary
  • List of Countries
  • For 7 days
  • Water Temperature
  • Satellite Maps
  • Weather Map
  • News
  • Weather Widgets
  • user-avatar
    Login

    Hourly Weather Nadezhda

    Today, 22 October, Monday

    Time Temperature Precipitation Wind Pressure Humidity
    00:00 +4°C° 0 mm 2 mps 757 mmHg 82%
    01:00 +4°C° 0 mm 2 mps 756 mmHg 83%
    02:00 +3°C° 0 mm 2 mps 757 mmHg 86%
    03:00 +4°C° 0 mm 1 mps 756 mmHg 87%
    04:00 +3°C° 0 mm 1 mps 756 mmHg 88%
    05:00 +3°C° 0 mm 1 mps 756 mmHg 89%
    06:00 +4°C° 0 mm 1 mps 756 mmHg 87%
    07:00 +4°C° 0 mm 1 mps 756 mmHg 85%
    08:00 +5°C° 0 mm 1 mps 757 mmHg 82%
    09:00 +6°C° 0 mm 1 mps 756 mmHg 75%
    10:00 +8°C° 0 mm 1 mps 756 mmHg 67%
    11:00 +8°C° 0 mm 0 mps 755 mmHg 60%
    12:00 +10°C° 0 mm 1 mps 755 mmHg 57%
    13:00 +10°C° 0 mm 1 mps 754 mmHg 53%
    14:00 +11°C° 0 mm 1 mps 754 mmHg 50%
    15:00 +10°C° 0 mm 1 mps 754 mmHg 54%
    16:00 +9°C° 0 mm 1 mps 753 mmHg 59%
    17:00 +8°C° 0 mm 1 mps 753 mmHg 63%
    18:00 +7°C° 0 mm 1 mps 752 mmHg 65%
    19:00 +7°C° 0 mm 1 mps 752 mmHg 66%
    20:00 +5°C° 0 mm 2 mps 752 mmHg 68%
    21:00 +5°C° 0 mm 2 mps 751 mmHg 70%
    22:00 +5°C° 0 mm 2 mps 751 mmHg 72%
    23:00 +4°C° 0 mm 2 mps 750 mmHg 73%

    Tomorrow, 23 October, Tuesday

    Time Temperature Precipitation Wind Pressure Humidity
    00:00 +4°C° 0 mm 2 mps 750 mmHg 76%
    01:00 +3°C° 0 mm 3 mps 749 mmHg 78%
    02:00 +3°C° 0 mm 3 mps 749 mmHg 81%
    03:00 +2°C° 0 mm 3 mps 748 mmHg 83%
    04:00 +2°C° 0 mm 3 mps 748 mmHg 86%
    05:00 +2°C° 0 mm 3 mps 747 mmHg 89%
    06:00 +3°C° 0.4 mm 3 mps 747 mmHg 89%
    07:00 +3°C° 0.4 mm 3 mps 747 mmHg 89%
    08:00 +4°C° 0.4 mm 3 mps 747 mmHg 90%
    09:00 +5°C° 0.1 mm 3 mps 746 mmHg 87%
    10:00 +5°C° 0.1 mm 3 mps 746 mmHg 85%
    11:00 +7°C° 0.1 mm 3 mps 746 mmHg 83%
    12:00 +8°C° 0 mm 3 mps 745 mmHg 77%
    13:00 +8°C° 0 mm 3 mps 744 mmHg 71%
    14:00 +9°C° 0 mm 3 mps 744 mmHg 65%
    15:00 +8°C° 0 mm 3 mps 743 mmHg 67%
    16:00 +7°C° 0 mm 3 mps 742 mmHg 68%
    17:00 +7°C° 0 mm 3 mps 742 mmHg 70%
    18:00 +5°C° 0.1 mm 3 mps 741 mmHg 72%
    19:00 +5°C° 0.1 mm 3 mps 740 mmHg 74%
    20:00 +5°C° 0.1 mm 4 mps 740 mmHg 76%
    21:00 +5°C° 0.1 mm 4 mps 738 mmHg 78%
    22:00 +5°C° 0.1 mm 4 mps 737 mmHg 80%
    23:00 +3°C° 0.1 mm 5 mps 736 mmHg 82%

    Day after tomorrow, 24 October, Wednesday

    Time Temperature Precipitation Wind Pressure Humidity
    00:00 +3°C° 0.3 mm 5 mps 735 mmHg 82%
    01:00 +3°C° 0.3 mm 6 mps 734 mmHg 83%
    02:00 +3°C° 0.3 mm 6 mps 732 mmHg 84%
    03:00 +4°C° 0.6 mm 7 mps 731 mmHg 85%
    04:00 +4°C° 0.6 mm 7 mps 730 mmHg 86%
    05:00 +4°C° 0.6 mm 7 mps 728 mmHg 86%
    06:00 +4°C° 0.8 mm 6 mps 727 mmHg 87%
    07:00 +4°C° 0.8 mm 6 mps 727 mmHg 87%
    08:00 +6°C° 0.8 mm 5 mps 726 mmHg 87%
    09:00 +6°C° 0.2 mm 5 mps 726 mmHg 84%
    10:00 +7°C° 0.2 mm 5 mps 726 mmHg 80%
    11:00 +7°C° 0.2 mm 5 mps 725 mmHg 77%
    12:00 +7°C° 0.2 mm 5 mps 726 mmHg 76%
    13:00 +7°C° 0.2 mm 4 mps 726 mmHg 76%
    14:00 +7°C° 0.2 mm 4 mps 726 mmHg 75%
    15:00 +8°C° 0.4 mm 3 mps 726 mmHg 79%
    16:00 +7°C° 0.4 mm 3 mps 726 mmHg 84%
    17:00 +6°C° 0.4 mm 2 mps 727 mmHg 88%
    18:00 +6°C° 0.3 mm 2 mps 727 mmHg 88%
    19:00 +5°C° 0.3 mm 3 mps 727 mmHg 89%
    20:00 +5°C° 0.3 mm 3 mps 727 mmHg 89%
    21:00 +4°C° 0.1 mm 4 mps 728 mmHg 89%
    22:00 +4°C° 0.1 mm 4 mps 728 mmHg 89%
    23:00 +4°C° 0.1 mm 4 mps 728 mmHg 90%

    25 October, Thursday

    Time Temperature Precipitation Wind Pressure Humidity
    00:00 +2°C° 0 mm 5 mps 728 mmHg 90%
    01:00 +2°C° 0 mm 5 mps 728 mmHg 91%
    02:00 +2°C° 0 mm 5 mps 728 mmHg 91%
    03:00 +2°C° 0 mm 6 mps 729 mmHg 88%
    04:00 +3°C° 0 mm 6 mps 729 mmHg 85%
    05:00 +3°C° 0 mm 7 mps 729 mmHg 82%
    06:00 +3°C° 0.1 mm 7 mps 729 mmHg 82%
    07:00 +2°C° 0.1 mm 8 mps 729 mmHg 82%
    08:00 +2°C° 0.1 mm 8 mps 730 mmHg 82%
    09:00 +2°C° 0 mm 8 mps 730 mmHg 79%
    10:00 +2°C° 0 mm 8 mps 730 mmHg 77%
    11:00 +2°C° 0 mm 8 mps 731 mmHg 74%
    12:00 +4°C° 0 mm 8 mps 731 mmHg 71%
    13:00 +4°C° 0 mm 8 mps 731 mmHg 68%
    14:00 +4°C° 0 mm 8 mps 731 mmHg 65%
    15:00 +4°C° 0 mm 7 mps 732 mmHg 67%
    16:00 +3°C° 0 mm 6 mps 732 mmHg 68%
    17:00 +3°C° 0 mm 6 mps 733 mmHg 70%
    18:00 +2°C° 0 mm 5 mps 733 mmHg 74%
    19:00 +1°C° 0 mm 4 mps 733 mmHg 78%
    20:00 +1°C° 0 mm 4 mps 733 mmHg 81%
    21:00 +1°C° 0 mm 3 mps 734 mmHg 83%
    22:00 +1°C° 0 mm 3 mps 734 mmHg 85%
    23:00 +1°C° 0 mm 3 mps 735 mmHg 87%

    26 October, Friday

    Time Temperature Precipitation Wind Pressure Humidity
    00:00 +1°C° 0 mm 3 mps 735 mmHg 88%
    01:00 0°C° 0 mm 3 mps 736 mmHg 88%
    02:00 -1°C° 0 mm 4 mps 737 mmHg 89%
    03:00 -1°C° 0 mm 4 mps 737 mmHg 90%
    04:00 -1°C° 0 mm 4 mps 738 mmHg 92%
    05:00 -1°C° 0 mm 4 mps 738 mmHg 93%
    06:00 -1°C° 0 mm 4 mps 738 mmHg 92%
    07:00 -1°C° 0 mm 4 mps 739 mmHg 91%
    08:00 -1°C° 0 mm 4 mps 739 mmHg 91%
    09:00 +1°C° 0 mm 4 mps 740 mmHg 83%
    10:00 +3°C° 0 mm 4 mps 740 mmHg 76%
    11:00 +5°C° 0 mm 5 mps 741 mmHg 69%
    12:00 +5°C° 0 mm 5 mps 741 mmHg 66%
    13:00 +6°C° 0 mm 5 mps 741 mmHg 63%
    14:00 +6°C° 0 mm 5 mps 742 mmHg 60%
    15:00 +5°C° 0 mm 4 mps 742 mmHg 64%
    16:00 +5°C° 0 mm 3 mps 743 mmHg 68%
    17:00 +4°C° 0 mm 3 mps 744 mmHg 71%
    18:00 +3°C° 0 mm 3 mps 744 mmHg 75%
    19:00 +3°C° 0 mm 3 mps 745 mmHg 78%
    20:00 +2°C° 0 mm 3 mps 745 mmHg 82%
    21:00 +3°C° 0 mm 2 mps 746 mmHg 84%
    22:00 +2°C° 0 mm 2 mps 746 mmHg 87%
    23:00 +2°C° 0 mm 2 mps 746 mmHg 90%

    27 October, Saturday

    Time Temperature Precipitation Wind Pressure Humidity
    00:00 +2°C° 0 mm 2 mps 747 mmHg 91%
    01:00 +1°C° 0 mm 2 mps 747 mmHg 92%
    02:00 +1°C° 0 mm 2 mps 747 mmHg 92%
    03:00 0°C° 0 mm 3 mps 747 mmHg 93%
    04:00 0°C° 0 mm 3 mps 747 mmHg 93%
    05:00 0°C° 0 mm 3 mps 747 mmHg 93%
    06:00 0°C° 0 mm 4 mps 746 mmHg 91%
    07:00 +1°C° 0 mm 4 mps 746 mmHg 88%
    08:00 +2°C° 0 mm 5 mps 746 mmHg 85%
    09:00 +3°C° 0 mm 5 mps 746 mmHg 79%
    10:00 +5°C° 0 mm 6 mps 746 mmHg 73%
    11:00 +7°C° 0 mm 6 mps 746 mmHg 68%
    12:00 +8°C° 0 mm 6 mps 745 mmHg 65%
    13:00 +9°C° 0 mm 6 mps 745 mmHg 62%
    14:00 +10°C° 0 mm 5 mps 744 mmHg 59%
    15:00 +9°C° 0 mm 5 mps 744 mmHg 62%
    16:00 +9°C° 0 mm 5 mps 744 mmHg 66%
    17:00 +8°C° 0 mm 4 mps 744 mmHg 69%
    18:00 +8°C° 0 mm 4 mps 744 mmHg 70%
    19:00 +8°C° 0 mm 4 mps 744 mmHg 72%
    20:00 +8°C° 0 mm 4 mps 744 mmHg 73%
    21:00 +8°C° 0 mm 4 mps 744 mmHg 78%
    22:00 +8°C° 0 mm 4 mps 744 mmHg 82%
    23:00 +7°C° 0 mm 4 mps 744 mmHg 86%

    28 October, Sunday

    Time Temperature Precipitation Wind Pressure Humidity
    00:00 +7°C° 0 mm 4 mps 744 mmHg 87%
    01:00 +7°C° 0 mm 4 mps 744 mmHg 88%
    02:00 +7°C° 0 mm 4 mps 744 mmHg 89%
    03:00 +8°C° 0 mm 4 mps 743 mmHg 86%
    04:00 +8°C° 0 mm 5 mps 743 mmHg 83%
    05:00 +8°C° 0 mm 5 mps 743 mmHg 80%
    06:00 +9°C° 0 mm 5 mps 743 mmHg 80%
    07:00 +9°C° 0 mm 6 mps 743 mmHg 81%
    08:00 +9°C° 0 mm 6 mps 743 mmHg 81%
    09:00 +11°C° 0 mm 6 mps 743 mmHg 77%
    10:00 +13°C° 0 mm 6 mps 743 mmHg 72%
    11:00 +14°C° 0 mm 7 mps 743 mmHg 68%
    12:00 +15°C° 0 mm 6 mps 743 mmHg 65%
    13:00 +16°C° 0 mm 6 mps 743 mmHg 61%
    14:00 +17°C° 0 mm 6 mps 742 mmHg 57%
    15:00 +16°C° 0 mm 6 mps 743 mmHg 60%
    16:00 +15°C° 0 mm 5 mps 743 mmHg 63%
    17:00 +15°C° 0 mm 5 mps 743 mmHg 66%
    18:00 +14°C° 0 mm 4 mps 743 mmHg 68%
    19:00 +14°C° 0 mm 4 mps 744 mmHg 70%
    20:00 +14°C° 0 mm 4 mps 744 mmHg 72%
    21:00 +13°C° 0 mm 4 mps 745 mmHg 75%
    22:00 +13°C° 0 mm 3 mps 746 mmHg 77%
    23:00 +13°C° 0 mm 3 mps 746 mmHg 79%
    Show more